Regional Weather Roundup
Issued by NWS

Home | Current Version | Previous Version | Graphics & Text | Print | Product List | Glossary On
Versions: 1 2 3 4 5 6 7 8 9 10 11 12 13 14 15 16 17 18 19 20 21 22 23 24 25 26 27 28 29 30 31 32 33 34 35 36 37 38 39 40 41 42 43 44 45 46 47 48 49 50
000
ASUS45 KBOU 271707
RWRCO

WEATHER ROUNDUP FOR COLORADO
NATIONAL WEATHER SERVICE DENVER/BOULDER CO
1000 AM MST THU NOV 27 2014

NOTE: "FAIR" INDICATES FEW OR NO CLOUDS BELOW 12000 FEET WITH NO
SIGNIFICANT WEATHER AND/OR OBSTRUCTIONS TO VISIBILITY.

COZ001>005-013-030-031-271800-
...NORTHWEST COLORADO...

CITY           SKY/WX    TMP DP  RH WIND       PRES   REMARKS
CRAIG          CLOUDY    34  27  75 SW3       30.40S
HAYDEN         PTSUNNY   30  23  74 SE8       30.40S WCI  23
MEEKER         PTSUNNY   36  27  69 CALM      30.43S
MOUNT WERNER   NOT AVBL
STEAMBOAT SPGS PTSUNNY   26  24  91 CALM      30.41S
WALDEN         PTSUNNY   36  19  51 S5        30.36S
$$

COZ006>008-011-271800-
...WEST CENTRAL VALLEYS...

CITY           SKY/WX    TMP DP  RH WIND       PRES   REMARKS
GRAND JUNCTION SUNNY     39  28  64 CALM      30.46F
MONTROSE       SUNNY     39  23  52 CALM      30.50F
EAGLE          NOT AVBL
RIFLE          MOSUNNY   30  25  81 CALM      30.49F
DELTA          SUNNY     39  27  61 NE3       30.51S
NUCLA          NOT AVBL
$$

COZ017>023-064>068-271800-
...SOUTHWEST COLORADO...

CITY           SKY/WX    TMP DP  RH WIND       PRES   REMARKS
DURANGO        SUNNY     39  25  57 NE3       30.50S
CORTEZ         SUNNY     43  20  39 NE3       30.49F
PAGOSA SPRINGS SUNNY     42  17  36 CALM      30.52R
TELLURIDE      SUNNY     35  20  53 E7        30.57F WCI  30
WOLF CREEK PAS SUNNY     37   1  22 MISG      30.64R
$$

COZ009-010-012-014-032>034-037-058>063-271800-
...CENTRAL COLORADO...

CITY           SKY/WX    TMP DP  RH WIND       PRES   REMARKS
ASPEN          SUNNY     34  21  59 CALM      30.46F
BUENA VISTA    SUNNY     40  19  43 CALM      30.44F
COPPER MTN     SUNNY     34  12  40 SW8       30.53S WCI  27
BERTHOUD PASS  NOT AVBL
COTTONWOOD PAS SUNNY     41  14  33 SE5       30.47F
GUNNISON       SUNNY     23  16  74 CALM      30.60F
KREMMLING      SUNNY     36  23  60 SE5       30.44F
LEADVILLE      SUNNY     36   9  32 N15G22    30.46F
MONARCH PASS   SUNNY     21  18  86 MISG      30.63R
SALIDA         SUNNY     44  19  36 NW8       30.50S
SUNLIGHT       SUNNY     32  27  80 SW3       30.54S
WILKERSON PASS MOSUNNY   34   5  29 W7        30.49F WCI  28
$$

COZ069>075-271800-
...SAN LUIS VALLEY/SANGRE DE CRISTO MOUNTAINS...

CITY           SKY/WX    TMP DP  RH WIND       PRES   REMARKS
ALAMOSA        MOSUNNY   37  18  46 CALM      30.52F
LA VETA PASS   PTSUNNY   34  18  51 S8G18     30.51F WCI  27
SAGUACHE       SUNNY     36  21  55 NW13      30.52S
$$

COZ035-036-038>040-271800-
...NORTHERN COLORADO FRONT RANGE...

CITY           SKY/WX    TMP DP  RH WIND       PRES   REMARKS
DENVER INTL AP CLOUDY    53  18  25 SW6       30.21F
DMNS CITY PARK   N/A     55  16  22 S9        30.21F
AURORA         PTSUNNY   52  18  26 SW8       30.24S
FRONT RANGE AP PTSUNNY   55  19  24 S7        30.23S
ERIE MUNI ARPT CLOUDY    55  22  27 CALM      30.20S
BOULDER MUN AP CLOUDY    57  16  19 S3        30.20S
CENTENNIAL     CLOUDY    58  13  17 SW13      30.24F
BROOMFIELD     PTSUNNY   59  12  15 W29G38    30.22
FORT COLLINS   PTSUNNY   36  30  80 NE6       30.20R
LONGMONT       PTSUNNY   60  16  18 SW7       30.21S
$$

COZ041-046-047-076>085-087-088-271800-
...PIKES PEAK/PALMER DIVIDE AND SOUTHERN FOOTHILLS...

CITY           SKY/WX    TMP DP  RH WIND       PRES   REMARKS
COLO. SPRINGS  PTSUNNY   56  20  24 CALM      30.30R
A. F. ACADEMY  PTSUNNY   58   8  13 VRB6G17   30.30R
ELLICOTT       NOT AVBL
FALCON         NOT AVBL
FORT CARSON    CLOUDY    44  28  54 NW3       30.28R
LIMON          PTSUNNY   45  27  49 N3        30.25F
MONUMENT HILL  PTSUNNY   54   9  16 SW10G16   30.30S
TRINIDAD       PTSUNNY   50  27  40 N3        30.31F
$$

COZ042>045-048>051-090-091-271800-
...NORTHEAST COLORADO...

CITY           SKY/WX    TMP DP  RH WIND       PRES   REMARKS
GREELEY ARPT   PTSUNNY   30  23  74 CALM      30.21R
AKRON          PTSUNNY   46  27  47 SW9       30.18F
BURLINGTON     SUNNY     50  28  42 SW14      30.22F
WRAY           SUNNY     45  32  60 CALM      30.20F
STERLING       PTSUNNY   34  30  86 S7        30.18F WCI  28
HOLYOKE        SUNNY     43  34  70 SW7       30.18F
FORT MORGAN    PTSUNNY   32  28  88 W3        30.19F
$$

COZ086-089-092>099-271800-
...SOUTHEAST COLORADO...

CITY           SKY/WX    TMP DP  RH WIND       PRES   REMARKS
PUEBLO         CLOUDY    35  27  72 CALM      30.27F
LA JUNTA       PTSUNNY   37  26  64 NW5       30.28S
LAMAR          MOSUNNY   39  23  52 W5        30.27F
SPRINGFIELD      N/A     53  29  39 S7        30.27F
$$



USA.gov is the U.S. government's official web portal to all federal, state and local government web resources and services.